This is the latest recevied weather packets stored in our database for station/object 9A3XK-13. If no packets are shown the sender has not sent any weather packets the latest 1 day(s).
| Time | Temp. | Humidity | Pressure | Rain* | Wind** | Luminosity | Snow |
|---|---|---|---|---|---|---|---|
| 1778002516 | 22.22° C | 44% | 1010.7 hPa | 0 mm | 3.58 m/s, 270° | 11 W/m² | - |
| 1778002216 | 22.22° C | 44% | 1010.7 hPa | 0 mm | 3.13 m/s, 248° | 11 W/m² | - |
| 1778001916 | 22.78° C | 43% | 1010.7 hPa | 0 mm | 3.58 m/s, 270° | 12 W/m² | - |
| 1778001616 | 22.78° C | 42% | 1010.8 hPa | 0 mm | 3.58 m/s, 270° | 12 W/m² | - |
| 1778001316 | 23.33° C | 41% | 1010.7 hPa | 0 mm | 3.13 m/s, 270° | 14 W/m² | - |
| 1778001016 | 23.33° C | 41% | 1010.7 hPa | 0 mm | 4.02 m/s, 270° | 19 W/m² | - |
| 1778000716 | 23.89° C | 40% | 1010.6 hPa | 0 mm | 3.58 m/s, 248° | 31 W/m² | - |
| 1778000416 | 24.44° C | 39% | 1010.6 hPa | 0 mm | 4.02 m/s, 270° | 54 W/m² | - |
| 1778000115 | 24.44° C | 38% | 1010.5 hPa | 0 mm | 4.02 m/s, 270° | 95 W/m² | - |
| 1777999816 | 25° C | 38% | 1010.5 hPa | 0 mm | 4.02 m/s, 270° | 97 W/m² | - |
| 1777999516 | 25° C | 37% | 1010.4 hPa | 0 mm | 4.47 m/s, 270° | 101 W/m² | - |
| 1777999216 | 25.56° C | 37% | 1010.4 hPa | 0 mm | 4.47 m/s, 270° | 99 W/m² | - |
| 1777998915 | 26.11° C | 38% | 1010.4 hPa | 0 mm | 1.79 m/s, 248° | 64 W/m² | - |
| 1777998616 | 26.67° C | 37% | 1010.3 hPa | 0 mm | 1.34 m/s, 248° | 71 W/m² | - |
| 1777998325 | 26.67° C | 36% | 1010.3 hPa | 0 mm | 2.24 m/s, 270° | 76 W/m² | - |
| 1777998016 | 27.22° C | 36% | 1010.3 hPa | 0 mm | 1.34 m/s, 270° | 89 W/m² | - |
| 1777997716 | 27.22° C | 35% | 1010.3 hPa | 0 mm | 1.79 m/s, 270° | 239 W/m² | - |
| 1777997415 | 27.22° C | 35% | 1010.3 hPa | 0 mm | 1.79 m/s, 270° | 252 W/m² | - |
| 1777997115 | 27.22° C | 34% | 1010.3 hPa | 0 mm | 1.79 m/s, 270° | 244 W/m² | - |
| 1777996816 | 27.22° C | 33% | 1010.3 hPa | 0 mm | 0.89 m/s, 270° | 283 W/m² | - |
| 1777996516 | 27.22° C | 32% | 1010.3 hPa | 0 mm | 0.89 m/s, 270° | 96 W/m² | - |
| 1777996215 | 27.78° C | 31% | 1010.3 hPa | 0 mm | 0.89 m/s, 270° | 63 W/m² | - |
| 1777995919 | 27.78° C | 32% | 1010.3 hPa | 0 mm | 1.79 m/s, 270° | 295 W/m² | - |
| 1777995615 | 27.78° C | 32% | 1010.4 hPa | 0 mm | 1.34 m/s, 270° | 265 W/m² | - |
| 1777995319 | 27.78° C | 31% | 1010.3 hPa | 0 mm | 1.79 m/s, 270° | 364 W/m² | - |
* Rain latest hour (hover to see other rain measurements)
** Current wind speed in m/s (hover to see current wind gust speed)